This is the latest recevied weather packets stored in our database for station/object KD8UTJ. If no packets are shown the sender has not sent any weather packets the latest 10 day(s).
| Time | Temp. | Humidity | Pressure | Rain* | Wind** | Luminosity | Snow |
|---|---|---|---|---|---|---|---|
| 1777558832 | 25° C | 83% | 1014.7 hPa | 0 mm | - | 163 W/m² | - |
| 1777557920 | 24.44° C | 84% | 1014.7 hPa | 0 mm | - | 161 W/m² | - |
| 1777557618 | 24.44° C | 85% | 1014.7 hPa | 0 mm | - | 160 W/m² | - |
| 1777557314 | 24.44° C | 84% | 1014.7 hPa | 0 mm | - | 165 W/m² | - |
| 1777556706 | 24.44° C | 85% | 1014.4 hPa | 0 mm | - | 313 W/m² | - |
| 1777555797 | 23.89° C | 89% | 1014.4 hPa | 0 mm | - | 235 W/m² | - |
| 1777555494 | 23.33° C | 90% | 1014.5 hPa | 0 mm | - | 324 W/m² | - |
| 1777555190 | 23.33° C | 90% | 1014.6 hPa | 0 mm | - | 202 W/m² | - |
| 1777554888 | 23.33° C | 91% | 1014.7 hPa | 0 mm | - | 186 W/m² | - |
| 1777554280 | 23.33° C | 92% | 1014.8 hPa | 0 mm | - | 151 W/m² | - |
| 1777553978 | 22.78° C | 92% | 1014.9 hPa | 0 mm | - | 147 W/m² | - |
| 1777552762 | 22.78° C | 94% | 1014.7 hPa | 0 mm | - | 131 W/m² | - |
| 1777552155 | 22.78° C | 94% | 1014.6 hPa | 0 mm | - | 109 W/m² | - |
| 1777551852 | 22.78° C | 94% | 1014.8 hPa | 0 mm | - | 105 W/m² | - |
| 1777551550 | 22.78° C | 94% | 1014.4 hPa | 0 mm | - | 135 W/m² | - |
| 1777550943 | 22.78° C | 94% | 1014.5 hPa | 0 mm | - | 119 W/m² | - |
| 1777550640 | 22.22° C | 94% | 1014.3 hPa | 0 mm | - | 108 W/m² | - |
| 1777550032 | 22.22° C | 95% | 1014 hPa | 0 mm | - | 74 W/m² | - |
| 1777548823 | 22.22° C | 95% | 1014 hPa | 0 mm | - | 49 W/m² | - |
| 1777548217 | 21.67° C | 95% | 1013.8 hPa | 0 mm | - | 49 W/m² | - |
| 1777547914 | 21.67° C | 94% | 1013.7 hPa | 0 mm | - | 37 W/m² | - |
| 1777547004 | 21.67° C | 94% | 1013.3 hPa | 0 mm | - | 14 W/m² | - |
| 1777546701 | 21.67° C | 94% | 1013.4 hPa | 0 mm | - | 10 W/m² | - |
| 1777545488 | 21.67° C | 93% | 1013.4 hPa | 0 mm | - | 1 W/m² | - |
| 1777544882 | 21.67° C | 92% | 1013.8 hPa | 0 mm | - | 0 W/m² | - |
* Rain latest hour (hover to see other rain measurements)
** Current wind speed in m/s (hover to see current wind gust speed)